Date String (YYYY-MM-DD hh:mm:ss) UTC,Instrument flags,Ambient pressure (hPa),Sample flow (lpm),Bypass flow (lpm),Sample temperature (°C),Ambient temperature (°C),ASC tube jacket temperature (°C),LED temperature (°C),Box temperature (°C),Sample RH (%),Span deviation,Mass concentration (μg/m³),Mass concentration (μg/m³),Mass concentration (μg/m³)
DateTimeUTC,F1_M11,P_M11,Q1_M11,Q2_M11,T1_M11,T2_M11,T3_M11,T4_M11,T5_M11,U1_M11,ZSPAN_M11,X0_M11,X2_M11,X1_M11
2022-10-07 14:00:00,,0838.3,4.99,0.00,27.2,25.6,00.0,36.0,29.1,20.3,-000.9,0015.47,0009.19,0007.84
2022-10-07 14:01:00,,0838.3,5.00,0.00,27.2,25.6,00.0,36.0,29.1,20.3,-001.3,0015.82,0009.25,0007.85
2022-10-07 14:02:00,,0838.3,5.01,0.00,27.2,25.6,00.0,36.0,29.1,20.3,-001.7,0016.26,0009.26,0007.84
2022-10-07 14:03:00,,0838.3,4.99,0.00,27.2,25.6,00.0,36.0,29.1,20.4,-001.9,0016.13,0009.20,0007.84
2022-10-07 14:04:00,,0838.3,5.00,0.00,27.2,25.6,00.0,36.0,29.1,20.3,-001.7,0016.84,0009.19,0007.83
2022-10-07 14:05:00,,0838.3,5.00,0.00,27.2,25.6,00.0,36.0,29.1,20.3,-001.8,0017.08,0009.18,0007.82
2022-10-07 14:06:00,,0838.3,5.01,0.00,27.2,25.6,00.0,36.0,29.1,20.3,-002.0,0017.63,0009.19,0007.82
2022-10-07 14:07:00,,0838.4,5.00,0.00,27.2,25.6,00.0,36.0,29.1,20.3,-002.1,0017.10,0009.11,0007.79
2022-10-07 14:08:00,,0838.4,5.00,0.00,27.2,25.6,00.0,36.0,29.1,20.3,-001.9,0016.73,0009.01,0007.75
2022-10-07 14:09:00,,0838.4,5.01,0.00,27.2,25.5,00.0,36.0,29.1,20.2,-001.4,0016.52,0008.97,0007.71
2022-10-07 14:10:00,,0838.4,5.00,0.00,27.2,25.5,00.0,36.0,29.1,20.3,-001.5,0016.52,0008.95,0007.70
2022-10-07 14:11:00,,0838.4,4.99,0.00,27.2,25.5,00.0,36.0,29.1,20.2,-001.1,0016.37,0008.89,0007.69
2022-10-07 14:12:00,,0838.4,5.00,0.00,27.2,25.5,00.0,36.0,29.1,20.2,-000.7,0016.22,0008.88,0007.68
2022-10-07 14:13:00,,0838.4,5.01,0.00,27.2,25.5,00.0,36.0,29.1,20.1,-000.0,0016.40,0008.85,0007.67
2022-10-07 14:14:00,,0838.4,4.99,0.00,27.2,25.4,00.0,36.0,29.0,20.1,0000.3,0016.59,0008.86,0007.66
2022-10-07 14:15:00,,0838.4,5.01,0.00,27.2,25.4,00.0,36.0,29.0,20.1,0000.1,0015.83,0008.82,0007.64
2022-10-07 14:16:00,,0838.4,5.00,0.00,27.1,25.5,00.0,35.9,29.0,20.2,-000.0,0015.51,0008.79,0007.60
2022-10-07 14:17:00,,0838.4,5.00,0.00,27.1,25.5,00.0,35.9,29.0,20.1,0000.7,0014.88,0008.70,0007.56
2022-10-07 14:18:00,,0838.4,5.01,0.00,27.1,25.4,00.0,35.9,29.0,20.2,0000.9,0015.32,0008.81,0007.56
2022-10-07 14:19:00,,0838.4,5.00,0.00,27.1,25.5,00.0,35.9,29.0,20.2,0000.9,0015.42,0008.90,0007.58
2022-10-07 14:20:00,,0838.3,5.00,0.00,27.1,25.5,00.0,35.9,29.0,20.2,0001.0,0015.04,0008.86,0007.57
2022-10-07 14:21:00,,0838.3,5.01,0.00,27.1,25.4,00.0,35.9,29.0,20.3,0001.1,0014.86,0008.81,0007.55
2022-10-07 14:22:00,,0838.4,4.99,0.00,27.1,25.4,00.0,35.9,29.0,20.2,0001.2,0014.73,0008.76,0007.54
2022-10-07 14:23:00,,0838.4,5.00,0.00,27.1,25.4,00.0,35.9,29.0,20.3,0000.6,0014.31,0008.66,0007.51
2022-10-07 14:24:00,,0838.4,5.00,0.00,27.1,25.4,00.0,35.9,29.0,20.4,0000.7,0013.40,0008.59,0007.49
2022-10-07 14:25:00,,0838.4,5.01,0.00,27.1,25.4,00.0,35.9,29.0,20.4,0000.8,0013.15,0008.53,0007.45
2022-10-07 14:26:00,,0838.4,4.99,0.00,27.1,25.4,00.0,35.9,29.0,20.4,0000.8,0013.09,0008.50,0007.44
2022-10-07 14:27:00,,0838.4,5.00,0.00,27.1,25.4,00.0,35.9,29.0,20.4,0001.3,0013.36,0008.47,0007.44
2022-10-07 14:28:00,,0838.4,5.01,0.00,27.1,25.3,00.0,35.9,28.9,20.3,0001.3,0013.34,0008.44,0007.41
2022-10-07 14:29:00,,0838.4,4.99,0.00,27.1,25.2,00.0,35.9,28.9,20.3,0001.5,0012.80,0008.29,0007.36
2022-10-07 14:30:00,,0838.4,5.01,0.00,27.0,25.2,00.0,35.9,28.9,20.3,0001.4,0012.44,0008.15,0007.27
2022-10-07 14:31:00,,0838.4,5.00,0.00,27.0,25.1,00.0,35.9,28.9,20.3,0001.0,0012.42,0008.07,0007.19
2022-10-07 14:32:00,,0838.4,5.01,0.00,27.0,25.1,00.0,35.9,28.9,20.3,0000.8,0012.28,0007.98,0007.10
2022-10-07 14:33:00,,0838.3,5.00,0.00,27.0,25.1,00.0,35.8,28.9,20.3,0000.9,0012.25,0007.93,0007.04
2022-10-07 14:34:00,,0838.3,4.99,0.00,27.0,25.0,00.0,35.8,28.8,20.3,0000.9,0012.31,0007.88,0006.98
2022-10-07 14:35:00,,0838.3,5.02,0.00,27.0,25.0,00.0,35.8,28.8,20.3,0000.5,0012.28,0007.82,0006.92
2022-10-07 14:36:00,,0838.4,4.99,0.00,26.9,25.0,00.0,35.8,28.8,20.4,0001.3,0012.13,0007.74,0006.86
2022-10-07 14:37:00,,0838.4,4.99,0.00,26.9,24.9,00.0,35.8,28.8,20.4,0000.6,0011.94,0007.65,0006.79
2022-10-07 14:38:00,,0838.4,5.01,0.00,26.9,25.0,00.0,35.8,28.7,20.4,-000.5,0011.58,0007.55,0006.72
2022-10-07 14:39:00,,0838.4,4.99,0.00,26.9,25.0,00.0,35.7,28.7,20.4,-000.8,0011.25,0007.41,0006.64
2022-10-07 14:40:00,,0838.4,5.00,0.00,26.9,25.0,00.0,35.7,28.7,20.3,-001.3,0011.04,0007.27,0006.57
2022-10-07 14:41:00,,0838.4,5.01,0.00,26.9,24.9,00.0,35.7,28.7,20.3,-000.8,0011.06,0007.23,0006.50
2022-10-07 14:42:00,,0838.3,4.99,0.00,26.8,24.9,00.0,35.7,28.7,20.3,-000.4,0011.19,0007.18,0006.47
2022-10-07 14:43:00,,0838.4,5.01,0.00,26.8,24.8,00.0,35.7,28.6,20.3,-000.9,0011.71,0007.15,0006.43
2022-10-07 14:44:00,,0838.4,5.00,0.00,26.8,24.8,00.0,35.7,28.6,20.3,-000.9,0012.04,0007.10,0006.40
2022-10-07 14:45:00,,0838.4,4.99,0.00,26.8,24.8,00.0,35.7,28.6,20.3,-000.9,0012.13,0007.04,0006.37
2022-10-07 14:46:00,,0838.4,5.00,0.00,26.8,24.8,00.0,35.6,28.6,20.3,-001.1,0012.18,0007.06,0006.36
2022-10-07 14:47:00,,0838.4,5.01,0.00,26.8,24.8,00.0,35.6,28.6,20.3,-001.4,0012.26,0007.08,0006.36
2022-10-07 14:48:00,,0838.4,5.00,0.00,26.8,24.9,00.0,35.6,28.6,20.4,-000.9,0012.34,0007.11,0006.38
2022-10-07 14:49:00,,0838.5,5.00,0.00,26.8,24.9,00.0,35.6,28.6,20.4,0000.6,0012.27,0007.11,0006.38
2022-10-07 14:50:00,,0838.5,5.00,0.00,26.7,24.9,00.0,35.6,28.6,20.3,0000.4,0012.16,0007.16,0006.43
2022-10-07 14:51:00,,0838.4,5.01,0.00,26.7,24.9,00.0,35.6,28.6,20.3,0000.4,0012.18,0007.22,0006.47
2022-10-07 14:52:00,,0838.4,5.00,0.00,26.7,24.9,00.0,35.6,28.6,20.3,-000.2,0012.24,0007.29,0006.53
2022-10-07 14:53:00,,0838.5,5.00,0.00,26.7,24.9,00.0,35.6,28.6,20.4,-000.7,0012.13,0007.38,0006.60
2022-10-07 14:54:00,,0838.5,5.00,0.00,26.7,24.9,00.0,35.5,28.6,20.3,-000.4,0011.60,0007.43,0006.65
2022-10-07 14:55:00,,0838.5,5.01,0.00,26.7,24.9,00.0,35.5,28.6,20.3,0000.0,0011.30,0007.49,0006.69
2022-10-07 14:56:00,,0838.5,5.00,0.00,26.7,24.9,00.0,35.5,28.6,20.3,-000.2,0011.20,0007.56,0006.73
2022-10-07 14:57:00,,0838.5,5.00,0.00,26.7,24.9,00.0,35.5,28.6,20.4,-000.5,0011.35,0007.64,0006.78
2022-10-07 14:58:00,,0838.5,5.02,0.00,26.7,24.9,00.0,35.5,28.5,20.4,-001.3,0011.50,0007.75,0006.83
2022-10-07 14:59:00,,0838.5,4.99,0.00,26.7,24.9,00.0,35.5,28.5,20.4,-002.2,0011.81,0007.87,0006.88
